Time,TemperatureF,DewpointF,PressureIn,WindDirection,WindDirectionDegrees,WindSpeedMPH,WindSpeedGustMPH,Humidity,HourlyPrecipIn,Conditions,Clouds,dailyrainin,SolarRadiationWatts/m^2,SoftwareType,DateUTC
2013-01-21 00:00:00,18.0,10.0,-100.00,SW,225,2.0,-999.0,70,-99.99,,,-99.99,0.000000,,2013-01-21 05:00:00,
2013-01-21 00:34:00,18.0,10.0,-100.00,SW,225,2.0,-999.0,70,-99.99,,,-99.99,0.000000,,2013-01-21 05:34:00,
2013-01-21 00:43:00,18.0,10.0,-100.00,SW,225,2.0,-999.0,70,-99.99,,,-99.99,0.000000,,2013-01-21 05:43:00,
2013-01-21 00:53:00,18.0,10.0,-100.00,SW,225,2.0,-999.0,70,-99.99,,,-99.99,0.000000,,2013-01-21 05:53:00,
2013-01-21 01:00:00,18.0,10.0,-100.00,WSW,247,2.0,-999.0,69,-99.99,,,-99.99,0.000000,,2013-01-21 06:00:00,
2013-01-21 01:43:00,18.0,10.0,-100.00,WSW,247,2.0,-999.0,69,-99.99,,,-99.99,0.000000,,2013-01-21 06:43:00,
2013-01-21 01:53:00,18.0,10.0,-100.00,WSW,247,2.0,-999.0,69,-99.99,,,-99.99,0.000000,,2013-01-21 06:53:00,
2013-01-21 02:00:00,18.0,9.0,-100.00,WSW,247,5.0,-999.0,67,-99.99,,,-99.99,0.000000,,2013-01-21 07:00:00,
2013-01-21 02:33:00,18.0,9.0,-100.00,WSW,247,5.0,-999.0,67,-99.99,,,-99.99,0.000000,,2013-01-21 07:33:00,
2013-01-21 02:43:00,18.0,9.0,-100.00,WSW,247,5.0,-999.0,67,-99.99,,,-99.99,0.000000,,2013-01-21 07:43:00,
2013-01-21 02:53:00,18.0,9.0,-100.00,WSW,247,5.0,-999.0,67,-99.99,,,-99.99,0.000000,,2013-01-21 07:53:00,
2013-01-21 03:00:00,17.0,12.0,-100.00,WSW,247,5.0,-999.0,80,-99.99,,,-99.99,0.000000,,2013-01-21 08:00:00,
2013-01-21 03:43:00,17.0,12.0,-100.00,WSW,247,5.0,-999.0,80,-99.99,,,-99.99,0.000000,,2013-01-21 08:43:00,
2013-01-21 03:53:00,17.0,12.0,-100.00,WSW,247,5.0,-999.0,80,-99.99,,,-99.99,0.000000,,2013-01-21 08:53:00,
2013-01-21 04:00:00,16.0,12.0,-100.00,SW,225,6.0,-999.0,85,-99.99,,,-99.99,0.000000,,2013-01-21 09:00:00,
2013-01-21 04:43:00,16.0,12.0,-100.00,SW,225,6.0,-999.0,85,-99.99,,,-99.99,0.000000,,2013-01-21 09:43:00,
2013-01-21 04:53:00,16.0,12.0,-100.00,SW,225,6.0,-999.0,85,-99.99,,,-99.99,0.000000,,2013-01-21 09:53:00,
2013-01-21 05:00:00,16.0,10.0,-100.00,WSW,247,4.0,-999.0,75,-99.99,,,-99.99,0.000000,,2013-01-21 10:00:00,
2013-01-21 05:43:00,16.0,10.0,-100.00,WSW,247,4.0,-999.0,75,-99.99,,,-99.99,0.000000,,2013-01-21 10:43:00,
2013-01-21 05:53:00,16.0,10.0,-100.00,WSW,247,4.0,-999.0,75,-99.99,,,-99.99,0.000000,,2013-01-21 10:53:00,
2013-01-21 06:00:00,16.0,8.0,-100.00,WSW,247,6.0,-999.0,69,-99.99,,,-99.99,0.000000,,2013-01-21 11:00:00,
2013-01-21 06:33:00,16.0,8.0,-100.00,WSW,247,6.0,-999.0,69,-99.99,,,-99.99,0.000000,,2013-01-21 11:33:00,
2013-01-21 06:43:00,16.0,8.0,-100.00,WSW,247,6.0,-999.0,69,-99.99,,,-99.99,0.000000,,2013-01-21 11:43:00,
2013-01-21 06:53:00,16.0,8.0,-100.00,WSW,247,6.0,-999.0,69,-99.99,,,-99.99,0.000000,,2013-01-21 11:53:00,
2013-01-21 07:00:00,15.0,9.0,-100.00,WSW,247,5.0,-999.0,73,-99.99,,,-99.99,0.000000,,2013-01-21 12:00:00,
2013-01-21 07:43:00,15.0,9.0,-100.00,WSW,247,5.0,-999.0,73,-99.99,,,-99.99,0.000000,,2013-01-21 12:43:00,
2013-01-21 07:53:00,15.0,9.0,-100.00,WSW,247,5.0,-999.0,73,-99.99,,,-99.99,0.000000,,2013-01-21 12:53:00,
2013-01-21 08:00:00,15.0,9.0,-100.00,WSW,247,5.0,-999.0,77,-99.99,,,-99.99,0.000000,,2013-01-21 13:00:00,
2013-01-21 08:33:00,15.0,9.0,-100.00,WSW,247,5.0,-999.0,77,-99.99,,,-99.99,0.000000,,2013-01-21 13:33:00,
2013-01-21 08:43:00,15.0,9.0,-100.00,WSW,247,5.0,-999.0,77,-99.99,,,-99.99,0.000000,,2013-01-21 13:43:00,
2013-01-21 08:54:00,15.0,9.0,-100.00,WSW,247,5.0,-999.0,77,-99.99,,,-99.99,0.000000,,2013-01-21 13:54:00,
2013-01-21 09:00:00,14.0,9.0,-100.00,WSW,247,5.0,-999.0,79,-99.99,,,-99.99,11.600000,,2013-01-21 14:00:00,
2013-01-21 09:43:00,14.0,9.0,-100.00,WSW,247,5.0,-999.0,79,-99.99,,,-99.99,11.600000,,2013-01-21 14:43:00,
2013-01-21 09:54:00,14.0,9.0,-100.00,WSW,247,5.0,-999.0,79,-99.99,,,-99.99,11.600000,,2013-01-21 14:54:00,
2013-01-21 10:00:00,14.0,9.0,-100.00,WSW,247,6.0,-999.0,81,-99.99,,,-99.99,87.000000,,2013-01-21 15:00:00,
2013-01-21 10:43:00,14.0,9.0,-100.00,WSW,247,6.0,-999.0,81,-99.99,,,-99.99,87.000000,,2013-01-21 15:43:00,
2013-01-21 10:53:00,14.0,9.0,-100.00,WSW,247,6.0,-999.0,81,-99.99,,,-99.99,87.000000,,2013-01-21 15:53:00,
2013-01-21 11:00:00,14.0,10.0,-100.00,WSW,247,7.0,-999.0,83,-99.99,,,-99.99,147.320007,,2013-01-21 16:00:00,
2013-01-21 11:44:00,14.0,10.0,-100.00,WSW,247,7.0,-999.0,83,-99.99,,,-99.99,147.320007,,2013-01-21 16:44:00,
2013-01-21 11:53:00,14.0,10.0,-100.00,WSW,247,7.0,-999.0,83,-99.99,,,-99.99,147.320007,,2013-01-21 16:53:00,
2013-01-21 12:00:00,14.0,9.0,-100.00,WSW,247,9.0,-999.0,82,-99.99,,,-99.99,277.239990,,2013-01-21 17:00:00,
2013-01-21 12:43:00,14.0,9.0,-100.00,WSW,247,9.0,-999.0,82,-99.99,,,-99.99,277.239990,,2013-01-21 17:43:00,
2013-01-21 12:53:00,14.0,9.0,-100.00,WSW,247,9.0,-999.0,82,-99.99,,,-99.99,277.239990,,2013-01-21 17:53:00,
2013-01-21 13:00:00,12.0,9.0,-100.00,West,270,11.0,-999.0,88,-99.99,,,-99.99,209.960007,,2013-01-21 18:00:00,
2013-01-21 13:43:00,12.0,9.0,-100.00,West,270,11.0,-999.0,88,-99.99,,,-99.99,209.960007,,2013-01-21 18:43:00,
2013-01-21 13:53:00,12.0,9.0,-100.00,West,270,11.0,-999.0,88,-99.99,,,-99.99,209.960007,,2013-01-21 18:53:00,
2013-01-21 14:00:00,12.0,9.0,-100.00,West,270,10.0,-999.0,86,-99.99,,,-99.99,271.440002,,2013-01-21 19:00:00,
2013-01-21 14:43:00,12.0,9.0,-100.00,West,270,10.0,-999.0,86,-99.99,,,-99.99,271.440002,,2013-01-21 19:43:00,
2013-01-21 14:53:00,12.0,9.0,-100.00,West,270,10.0,-999.0,86,-99.99,,,-99.99,271.440002,,2013-01-21 19:53:00,
2013-01-21 16:00:00,10.0,7.0,-100.00,West,270,11.0,-999.0,87,-99.99,,,-99.99,230.839996,,2013-01-21 21:00:00,
2013-01-21 16:43:00,10.0,7.0,-100.00,West,270,11.0,-999.0,87,-99.99,,,-99.99,230.839996,,2013-01-21 21:43:00,
2013-01-21 16:54:00,10.0,7.0,-100.00,West,270,11.0,-999.0,87,-99.99,,,-99.99,230.839996,,2013-01-21 21:54:00,
2013-01-21 17:00:00,9.0,5.0,-100.00,West,270,11.0,-999.0,82,-99.99,,,-99.99,92.800003,,2013-01-21 22:00:00,
2013-01-21 17:33:00,9.0,5.0,-100.00,West,270,11.0,-999.0,82,-99.99,,,-99.99,92.800003,,2013-01-21 22:33:00,
2013-01-21 17:43:00,9.0,5.0,-100.00,West,270,11.0,-999.0,82,-99.99,,,-99.99,92.800003,,2013-01-21 22:43:00,
2013-01-21 17:53:00,9.0,5.0,-100.00,West,270,11.0,-999.0,82,-99.99,,,-99.99,92.800003,,2013-01-21 22:53:00,
2013-01-21 18:00:00,8.0,4.0,-100.00,West,270,8.0,-999.0,84,-99.99,,,-99.99,12.760000,,2013-01-21 23:00:00,
2013-01-21 18:33:00,8.0,4.0,-100.00,West,270,8.0,-999.0,84,-99.99,,,-99.99,12.760000,,2013-01-21 23:33:00,
2013-01-21 18:43:00,8.0,4.0,-100.00,West,270,8.0,-999.0,84,-99.99,,,-99.99,12.760000,,2013-01-21 23:43:00,
2013-01-21 18:53:00,8.0,4.0,-100.00,West,270,8.0,-999.0,84,-99.99,,,-99.99,12.760000,,2013-01-21 23:53:00,
2013-01-21 19:00:00,8.0,4.0,-100.00,West,270,7.0,-999.0,84,-99.99,,,-99.99,0.000000,,2013-01-22 00:00:00,
2013-01-21 19:33:00,8.0,4.0,-100.00,West,270,7.0,-999.0,84,-99.99,,,-99.99,0.000000,,2013-01-22 00:33:00,
2013-01-21 19:43:00,8.0,4.0,-100.00,West,270,7.0,-999.0,84,-99.99,,,-99.99,0.000000,,2013-01-22 00:43:00,
2013-01-21 19:53:00,8.0,4.0,-100.00,West,270,7.0,-999.0,84,-99.99,,,-99.99,0.000000,,2013-01-22 00:53:00,
2013-01-21 21:00:00,8.0,6.0,-100.00,West,270,5.0,-999.0,90,-99.99,,,-99.99,0.000000,,2013-01-22 02:00:00,
2013-01-21 21:43:00,8.0,6.0,-100.00,West,270,5.0,-999.0,90,-99.99,,,-99.99,0.000000,,2013-01-22 02:43:00,
2013-01-21 21:53:00,8.0,6.0,-100.00,West,270,5.0,-999.0,90,-99.99,,,-99.99,0.000000,,2013-01-22 02:53:00,
2013-01-21 22:00:00,8.0,5.0,-100.00,West,270,6.0,-999.0,89,-99.99,,,-99.99,0.000000,,2013-01-22 03:00:00,
2013-01-21 22:43:00,8.0,5.0,-100.00,West,270,6.0,-999.0,89,-99.99,,,-99.99,0.000000,,2013-01-22 03:43:00,
2013-01-21 22:53:00,8.0,5.0,-100.00,West,270,6.0,-999.0,89,-99.99,,,-99.99,0.000000,,2013-01-22 03:53:00,
2013-01-21 23:00:00,7.0,5.0,-100.00,West,270,5.0,-999.0,89,-99.99,,,-99.99,0.000000,,2013-01-22 04:00:00,
2013-01-21 23:43:00,7.0,5.0,-100.00,West,270,5.0,-999.0,89,-99.99,,,-99.99,0.000000,,2013-01-22 04:43:00,
2013-01-21 23:53:00,7.0,5.0,-100.00,West,270,5.0,-999.0,89,-99.99,,,-99.99,0.000000,,2013-01-22 04:53:00,